Simultaneous Nadir Overpasses (SNOs) Predictions

Prediction of SNOs between GOES-16 and METOP-B Satellite Orbit:

Table of predicted SNOs for the next 14.0 days since TLE Epoch: 3/28/2025
Index Date Time (GOES-16) GOES-16 Lat,Lon METOP-B Lat,Lon Distance(km) Time Diff (sec)
1 03/30/2025 02:15:50 -0.06, -75.49 -0.18, -76.04 61.78 80
2 04/01/2025 14:11:27 0.05, -75.53 0.06, -75.66 13.53 80
3 04/04/2025 02:09:52 -0.05, -75.53 0.03, -75.31 26.06 80
4 04/05/2025 14:28:45 0.05, -75.57 1.02, -79.89 493.03 80
5 04/06/2025 14:10:48 0.04, -75.58 -0.13, -74.92 75.76 80
6 04/08/2025 02:29:50 -0.04, -75.58 -0.90, -79.54 451.11 80
7 04/09/2025 02:06:31 -0.04, -75.60 0.20, -74.56 118.14 80
8 04/10/2025 14:25:25 0.04, -75.65 0.83, -79.15 398.93 80
9 04/11/2025 14:07:26 0.04, -75.67 -0.27, -74.17 171.10 80
